Location: Canazei
(46.4667°N, 11.7667°E)
Time: 18:25:04
(UTC+00:00)

Cosmos 1680 Rocket - Pass Details

Date: 21 April 2021
Orbit: 759 x 782 km, 74.1° (Epoch: 11 May)

Event Time Altitude Azimuth Distance (km) Brightness Sun altitude
Rises 02:19:17 0° 329° (NNW) 3,265 6.9 -18.1°
Reaches altitude 10° 02:21:56 10° 318° (NW) 2,336 6.0 -17.8°
Maximum altitude 02:26:26 29° 260° (W) 1,410 4.4 -17.2°
Enters shadow 02:27:04 28° 247° (WSW) 1,434 4.4 -17.1°
